Torna al catalogo

ONEWEB-0524

AttivoComunicazioniPO
NORAD 54142·PAYLOAD·🇬🇧 United Kingdom

Lanciato Oct 22, 2022 da Satish Dhawan Space Centre

Loading…

Prossimi Passaggi (prossime 24 ore)

TLE

AggiornatoSource: CelesTrak SupGP

Epoca: Sep 14, 2026, 19:25 UTC

1 54142C 22138AF  26257.80955278  .00001493  00000+0  36771-2 0  2577
2 54142  87.9136 256.5599 0001132  92.1844 356.0456 13.20768873    13

Traccia ONEWEB-0524 in tempo reale con AllMySat

Download on the App Store